Home   Weather   Canterbury   Past weeks

Flag for United Kingdom Past Weather in Canterbury, England, United Kingdom — Yesterday and Last 2 Weeks

Now
31 °F

Chilly.


Feels Like: 26 °F
Forecast: 29 / 42 °F
Wind: 6 mph from Northeast

Location: Manston

Current Time: Jan 19, 2017 at 2:17:12 am

Latest Report: Jan 19, 2017 at 1:00 am


Visibility: 9 mi

Pressure: 30.65 "Hg

Humidity: 80%

Dew Point: 26 °F

Location of CanterburyLocation

Past Weather in Canterbury — Graph

°F

Canterbury Temperature Yesterday

Maximum temperature yesterday: 38 °F (at 1:00 pm)
Minimum temperature yesterday: 26 °F (at 8:00 am)
Average temperature yesterday: 32 °F

High & Low Weather Summary for the Past Weeks

 TemperatureHumidityPressure
High50 °F (Jan 9, 1:00 pm)100% (Jan 7, 7:00 am)30.70 "Hg (Jan 7, 7:00 am)
Low26 °F (Jan 18, 8:00 am)61% (Jan 11, 3:00 pm)29.21 "Hg (Jan 12, 7:00 pm)
Average40 °F88%30.23 "Hg
* Reported Jan 4 1:00 am — Jan 19 1:00 am, Canterbury, Weather by CustomWeather, © 2017

Note: Actual official high and low records may vary slightly from our data, if they occured in-between our weather recording intervals... More about our weather records

Advertising

Canterbury Weather History for the Previous 24 Hours

Scroll right to see more
 ConditionsComfort  
Time TempWeatherWind HumidityBarometerVisibility
1:00 am
Thu, Jan 19
31 °FChilly.6 mph80%30.65 "Hg9 mi
12:00 am32 °FChilly.5 mph81%30.66 "Hg9 mi
11:00 pm
Wed, Jan 18
33 °FChilly.5 mph82%30.66 "Hg7 mi
10:00 pm33 °FChilly.3 mph83%30.66 "Hg7 mi
9:00 pm34 °FChilly.3 mph81%30.66 "Hg6 mi
8:00 pm33 °FSmoke.3 mph88%30.67 "Hg5 mi
7:00 pm30 °FSmoke.5 mph90%30.67 "Hg5 mi
6:00 pm32 °FSmoke.3 mph90%30.66 "Hg5 mi
5:00 pm32 °FSmoke.3 mph87%30.67 "Hg6 mi
4:00 pm36 °FSmoke.5 mph77%30.68 "Hg6 mi
3:00 pm37 °FSmoke.6 mph76%30.68 "Hg6 mi
2:00 pm38 °FSmoke.6 mph73%30.68 "Hg6 mi
1:00 pm38 °FSmoke.7 mph71%30.68 "Hg6 mi
12:00 pm38 °FSmoke.7 mph77%30.68 "Hg5 mi
11:00 am36 °FSmoke.No wind83%30.69 "Hg4 mi
10:00 am34 °FSmoke.1 mph84%30.70 "Hg4 mi
9:00 am31 °FSmoke.3 mph85%30.69 "Hg6 mi
8:00 am26 °FSmoke.3 mph90%30.69 "Hg4 mi
7:00 am27 °FSmoke.3 mph87%30.68 "Hg4 mi
6:00 am27 °FSmoke.1 mph90%30.66 "Hg5 mi
5:00 am29 °FSmoke.5 mph83%30.67 "Hg6 mi
4:00 am30 °FSmoke.3 mph84%30.68 "Hg6 mi
3:00 am29 °FSmoke.5 mph84%30.69 "Hg6 mi
2:00 am29 °FSmoke.3 mph83%30.68 "Hg5 mi
Weather by CustomWeather, © 2017

See weather overviewHow to use our weather pages